It's Wednesday,
June 26th, 2019
User not logged in
[Run Race Header Image][Run Race logo]
  
Race webcasting is attempted by race directors and their support staff. Please remember that conditions under which they're working may make it difficult to post timely webcast updates... your interest and patience is appreciated!
Race Information
Race Name:2nd Annual Indiana Trail 100
Location:Albion
State:Indiana, United States
 button: button: Webcast Autoplay
Event Information
Name of Event:100 Mile Trail
Distance:100.00
Measurement:Miles
Date:Saturday April 26th, 2014
button: Assign Numbers  
Checkpoint:SchOut1
Distance:4.3 Miles
Gun Start Time:Saturday April 26th, 2014 5:59:34.15 am
Calculate Chip Start Time:< not set >
Y or N... Calculate splits based upon participant chip start time?
Allow Early Chip Start Time:< not set >
Y or N... Allow participants a chip start time prior to gun start?
Pos Race
Number
NameAgeSexTimePace 
1128Jose Palmerin23M32:24.37:32.2Sat Apr 26th, 2014 6:31:58 am
2141Shan Riggs35M35:47.88:19.5Sat Apr 26th, 2014 6:35:21 am
3177Eric Fritz46M36:11.98:25.1Sat Apr 26th, 2014 6:35:46 am
494Kate Lock44F36:12.78:25.3Sat Apr 26th, 2014 6:35:46 am
5182Craig Wheeler52M36:22.38:27.5Sat Apr 26th, 2014 6:35:56 am
6149Todd Siebert32M37:32.28:43.8Sat Apr 26th, 2014 6:37:06 am
7166Jim Trout44M37:38.78:45.3Sat Apr 26th, 2014 6:37:12 am
8112Frank Morris32M39:46.69:15.0Sat Apr 26th, 2014 6:39:20 am
914John Bertram51M40:32.09:25.6Sat Apr 26th, 2014 6:40:06 am
1026Jessica Campbell21F41:28.99:38.8Sat Apr 26th, 2014 6:41:03 am
1145Nicholas Eiben19M41:30.39:39.1Sat Apr 26th, 2014 6:41:04 am
12151Jen Skelly34F41:33.19:39.8Sat Apr 26th, 2014 6:41:07 am
1398Kenneth Lynn42M41:37.19:40.7Sat Apr 26th, 2014 6:41:11 am
14158Paul Stofko38M41:38.79:41.1Sat Apr 26th, 2014 6:41:12 am
15140Kirk Ridenour54M41:42.59:42.0Sat Apr 26th, 2014 6:41:16 am
1641Paul Dott31M41:56.29:45.2Sat Apr 26th, 2014 6:41:30 am
17115Carolynn Nauta32F42:07.69:47.8Sat Apr 26th, 2014 6:41:41 am
1879David E. Jackson36M42:22.39:51.2Sat Apr 26th, 2014 6:41:56 am
19148Travis Shields37M42:27.29:52.4Sat Apr 26th, 2014 6:42:01 am
2034Vincent Corona30M43:36.010:08.4Sat Apr 26th, 2014 6:43:10 am
21164Dylan Hammons41M43:45.410:10.5Sat Apr 26th, 2014 6:43:19 am
2164Cindylee Torres54F43:45.410:10.5Sat Apr 26th, 2014 6:43:19 am
23161Mika Thewes22F43:54.810:12.7Sat Apr 26th, 2014 6:43:28 am
2454Tom Fifer51M44:01.710:14.3Sat Apr 26th, 2014 6:43:35 am
2542Michael Dowdell38M44:06.310:15.4Sat Apr 26th, 2014 6:43:40 am
2687Ryan "Stormy" Knight37M44:47.010:24.9Sat Apr 26th, 2014 6:44:21 am
2721Bob Brashear55M44:47.310:25.0Sat Apr 26th, 2014 6:44:21 am
2824todd brown45M44:56.910:27.2Sat Apr 26th, 2014 6:44:31 am
29113SIAMAK MOSTOUFI39M45:26.110:34.0Sat Apr 26th, 2014 6:45:00 am
3017Andrew Borst43M45:33.210:35.6Sat Apr 26th, 2014 6:45:07 am
31104David Mentjes44M45:38.610:36.9Sat Apr 26th, 2014 6:45:12 am
3228Tony Cesario50M45:39.710:37.1Sat Apr 26th, 2014 6:45:13 am
338Brian Barger53M45:40.710:37.4Sat Apr 26th, 2014 6:45:14 am
34114Larry Mullinnix49M45:41.310:37.5Sat Apr 26th, 2014 6:45:15 am
35154Mike Smith56M46:02.010:42.3Sat Apr 26th, 2014 6:45:36 am
36146Rob Schultz47M46:20.610:46.6Sat Apr 26th, 2014 6:45:54 am
37129Ben Pearce19M46:33.910:49.8Sat Apr 26th, 2014 6:46:08 am
38159Steve Sunbury44M46:35.310:50.1Sat Apr 26th, 2014 6:46:09 am
39185Glenn Kasper50M46:45.810:52.5Sat Apr 26th, 2014 6:46:19 am
4068Shawn Hawk49M46:46.810:52.7Sat Apr 26th, 2014 6:46:20 am
4182Juan Juarez42M46:49.510:53.4Sat Apr 26th, 2014 6:46:23 am
4257Mark Gavorski48M46:51.310:53.8Sat Apr 26th, 2014 6:46:25 am
43162Mark Thill38M46:57.710:55.3Sat Apr 26th, 2014 6:46:31 am
4444Tanya Eggert44F47:01.610:56.2Sat Apr 26th, 2014 6:46:35 am
45127Daniel Paige34M47:07.210:57.5Sat Apr 26th, 2014 6:46:41 am
46130Alfredo ''Moose'' Pedro45M47:07.410:57.5Sat Apr 26th, 2014 6:46:41 am
47126Julie Pagel29F47:09.110:57.9Sat Apr 26th, 2014 6:46:43 am
4846Mike Else45M47:09.510:58.0Sat Apr 26th, 2014 6:46:43 am
4963Jerret Halter32M47:11.210:58.4Sat Apr 26th, 2014 6:46:45 am
50183Anastasia Andrychowski34F47:11.810:58.6Sat Apr 26th, 2014 6:46:45 am
515LEE ANDERSON56M47:12.910:58.8Sat Apr 26th, 2014 6:46:47 am
52108Joshua Mock32M47:13.610:59.0Sat Apr 26th, 2014 6:46:47 am
5372Rich Henderson58M47:19.311:00.3Sat Apr 26th, 2014 6:46:53 am
54106Jeremy Miller44M47:20.811:00.6Sat Apr 26th, 2014 6:46:54 am
55184Kinga Kokoc35F47:30.111:02.8Sat Apr 26th, 2014 6:47:04 am
56181Rene Samano28M47:33.011:03.5Sat Apr 26th, 2014 6:47:07 am
57175David Zent38M47:39.611:05.0Sat Apr 26th, 2014 6:47:13 am
5820Erin Brady42F47:50.811:07.6Sat Apr 26th, 2014 6:47:24 am
59119David Nichols53M47:53.511:08.3Sat Apr 26th, 2014 6:47:27 am
60133Richard Plezia55M47:54.711:08.5Sat Apr 26th, 2014 6:47:28 am
61145James Schroeder37M47:59.711:09.7Sat Apr 26th, 2014 6:47:33 am
6250Linda Keuneke50F48:00.911:10.0Sat Apr 26th, 2014 6:47:35 am
6366Dick Canterbury66M48:05.511:11.1Sat Apr 26th, 2014 6:47:39 am
6455Zach Franklin31M48:05.711:11.1Sat Apr 26th, 2014 6:47:39 am
65163Derek Tinnin46M48:18.911:14.2Sat Apr 26th, 2014 6:47:53 am
66111James Cooper44M48:21.011:14.7Sat Apr 26th, 2014 6:47:55 am
6761Graham Grove36M48:42.411:19.6Sat Apr 26th, 2014 6:48:16 am
6860Garrison Grove29M48:42.911:19.7Sat Apr 26th, 2014 6:48:17 am
69134dave potter49M48:43.711:19.9Sat Apr 26th, 2014 6:48:17 am
70176Stan Zygmunt51M48:55.011:22.6Sat Apr 26th, 2014 6:48:29 am
7118James Bowers36M48:55.011:22.6
7253Ramon Ferrer Jr34M48:55.611:22.7Sat Apr 26th, 2014 6:48:29 am
73125Jeff Oliver40M49:04.511:24.8Sat Apr 26th, 2014 6:48:38 am
7491Bill Kulwicki55M49:08.911:25.8Sat Apr 26th, 2014 6:48:43 am
7539Nathan DeWall34M49:09.811:26.0Sat Apr 26th, 2014 6:48:43 am
7656Helen Garen49F49:18.911:28.1Sat Apr 26th, 2014 6:48:53 am
7733Aaron Conner41M49:19.411:28.2Sat Apr 26th, 2014 6:48:53 am
78116David Nelson26M49:21.511:28.7Sat Apr 26th, 2014 6:48:55 am
79117Peter Nelson50M49:21.611:28.7Sat Apr 26th, 2014 6:48:55 am
8062Martin Guthrie47M49:43.711:33.9Sat Apr 26th, 2014 6:49:17 am
81136Rashad Qadir50M49:43.911:33.9Sat Apr 26th, 2014 6:49:18 am
82174Randall Yost55M49:45.411:34.3Sat Apr 26th, 2014 6:49:19 am
8383Chris Junken35M49:46.011:34.4Sat Apr 26th, 2014 6:49:20 am
84124Ethan Olds24M49:47.911:34.9Sat Apr 26th, 2014 6:49:22 am
8552Jamie Farley35M49:49.311:35.2Sat Apr 26th, 2014 6:49:23 am
86137Jamie Quarandillo40F50:05.811:39.0Sat Apr 26th, 2014 6:49:39 am
87180Michael Linkogel43M50:29.811:44.6Sat Apr 26th, 2014 6:50:03 am
8876Scott Hudson46M50:32.911:45.3Sat Apr 26th, 2014 6:50:07 am
89169Chris Walker34M50:36.311:46.1Sat Apr 26th, 2014 6:50:10 am
90123Reggie O'HARA45M50:40.211:47.0Sat Apr 26th, 2014 6:50:14 am
91103Chris McMahon54M50:45.711:48.3Sat Apr 26th, 2014 6:50:19 am
9236John Cushma40M50:46.511:48.5Sat Apr 26th, 2014 6:50:20 am
9316toni bohannon46F50:48.111:48.9Sat Apr 26th, 2014 6:50:22 am
94171Marci Wease37F50:48.211:48.9Sat Apr 26th, 2014 6:50:22 am
9540Noe j Dominguez45M50:58.411:51.3Sat Apr 26th, 2014 6:50:32 am
96142Steve Riportella48M51:02.111:52.1Sat Apr 26th, 2014 6:50:36 am
9778Lauren Idzik43F51:29.311:58.4Sat Apr 26th, 2014 6:51:03 am
9813Richard Benjamin58M51:35.912:00.0Sat Apr 26th, 2014 6:51:10 am
99150Robert Siscoe59M51:36.712:00.2Sat Apr 26th, 2014 6:51:10 am
10012Richard Barton61M51:43.212:01.7Sat Apr 26th, 2014 6:51:17 am
10138James Davidson51M51:43.812:01.8Sat Apr 26th, 2014 6:51:17 am
10299Daniel Maddox38M51:45.512:02.2Sat Apr 26th, 2014 6:51:19 am
10397Suann Lundsberg38F51:46.712:02.5Sat Apr 26th, 2014 6:51:20 am
10493John Leighton53M51:47.712:02.7Sat Apr 26th, 2014 6:51:21 am
105135Rob Putz48M51:50.812:03.4Sat Apr 26th, 2014 6:51:24 am
1069Crystal Barton38F51:55.012:04.4Sat Apr 26th, 2014 6:51:29 am
107168Jesse Vasquez38M51:56.412:04.7Sat Apr 26th, 2014 6:51:30 am
108120Caleb Nolen28M52:05.312:06.8Sat Apr 26th, 2014 6:51:39 am
10949Ana Esqueda39F52:05.312:06.8Sat Apr 26th, 2014 6:51:39 am
1103Justin Alford40M52:06.612:07.1Sat Apr 26th, 2014 6:51:40 am
111107Kirk Misaka55M52:06.712:07.1Sat Apr 26th, 2014 6:51:40 am
112165Judd Trayling40M52:07.212:07.2Sat Apr 26th, 2014 6:51:41 am
11386John Klarquist49M52:08.612:07.6Sat Apr 26th, 2014 6:51:42 am
11490Steven Kuhl62M52:20.612:10.4Sat Apr 26th, 2014 6:51:54 am
11573Jeff Hogan45M52:21.912:10.7Sat Apr 26th, 2014 6:51:56 am
116170ben wallace57M52:26.612:11.8Sat Apr 26th, 2014 6:52:00 am
11725Aaron Butler32M52:27.812:12.0Sat Apr 26th, 2014 6:52:01 am
11874Alex "ACE" Honigford33M52:30.112:12.6Sat Apr 26th, 2014 6:52:04 am
119179Elizabeth Hermans31F52:41.712:15.3Sat Apr 26th, 2014 6:52:15 am
12029Curt Chambers53M52:47.012:16.5Sat Apr 26th, 2014 6:52:21 am
121178Joe Cuthbertson39M52:47.312:16.6Sat Apr 26th, 2014 6:52:21 am
1226Ric Angara43M53:04.512:20.6Sat Apr 26th, 2014 6:52:38 am
123110Doug Morris60M53:07.212:21.2Sat Apr 26th, 2014 6:52:41 am
12415sandra bocchicchio41F53:10.612:22.0Sat Apr 26th, 2014 6:52:44 am
12527Dennis Cantrell53M53:13.112:22.6Sat Apr 26th, 2014 6:52:47 am
12631Mark Coates33M53:26.312:25.6Sat Apr 26th, 2014 6:53:00 am
12747David Englund46M53:27.012:25.8Sat Apr 26th, 2014 6:53:01 am
128101Sondra Marker50F53:31.612:26.9Sat Apr 26th, 2014 6:53:05 am
12935Joe Cortez49M53:40.212:28.9Sat Apr 26th, 2014 6:53:14 am
1302Kurt Adams35M53:43.312:29.6Sat Apr 26th, 2014 6:53:17 am
131132Catherine Pinkston29F53:47.612:30.6Sat Apr 26th, 2014 6:53:21 am
132147mark sheeran54M54:01.012:33.7Sat Apr 26th, 2014 6:53:35 am
13323Kimmie Brown34F54:18.812:37.9Sat Apr 26th, 2014 6:53:52 am
13458Gary Gentry48M54:26.312:39.6Sat Apr 26th, 2014 6:54:00 am
1354Jonathon Amlung44M54:44.412:43.8Sat Apr 26th, 2014 6:54:18 am
136131Scott Peterson38M54:51.812:45.5Sat Apr 26th, 2014 6:54:25 am
13710Kathy Barton57F54:54.812:46.2Sat Apr 26th, 2014 6:54:28 am
13811Mark Barton57M54:55.012:46.3Sat Apr 26th, 2014 6:54:29 am
13948Karen Erba44F54:59.112:47.2Sat Apr 26th, 2014 6:54:33 am
140122Terry Null55M55:00.212:47.5Sat Apr 26th, 2014 6:54:34 am
141152Dean Smith41M55:44.712:57.8Sat Apr 26th, 2014 6:55:18 am
142157Fred Steuber46M56:05.113:02.6Sat Apr 26th, 2014 6:55:39 am
143102Rick McClain52M56:24.713:07.1Sat Apr 26th, 2014 6:55:58 am
14484Larry Kelley47M56:40.413:10.8Sat Apr 26th, 2014 6:56:14 am
145156Phil Stapert47M56:56.213:14.5Sat Apr 26th, 2014 6:56:30 am
146143Matthew Santner37M56:57.613:14.8Sat Apr 26th, 2014 6:56:31 am
147172Kenneth Westerman55M56:57.913:14.9Sat Apr 26th, 2014 6:56:32 am
14881MELISSA JOYCE-HASSAN49F57:20.213:20.0Sat Apr 26th, 2014 6:56:54 am
1497REGINA ARVIN41F57:38.313:24.3Sat Apr 26th, 2014 6:57:12 am
15069Kent Heck52M58:07.213:31.0Sat Apr 26th, 2014 6:57:41 am
15175Bruce Houston57M58:23.013:34.6Sat Apr 26th, 2014 6:57:57 am
15270Mike Heider54M1:00:36.814:05.8Sat Apr 26th, 2014 7:00:10 am
153138Frank Rampton57M1:03:26.114:45.1Sat Apr 26th, 2014 7:03:00 am
154167Ali Turfe50M1:03:27.414:45.4Sat Apr 26th, 2014 7:03:01 am
15530Katie Cloninger36F1:04:22.314:58.2Sat Apr 26th, 2014 7:03:56 am
15651Dan Fabish18M1:04:22.614:58.3Sat Apr 26th, 2014 7:03:56 am
157173Michael Wolff41M1:05:29.715:13.9Sat Apr 26th, 2014 7:05:03 am
158121Mark Norfleet57M1:11:29.916:37.6Sat Apr 26th, 2014 7:11:04 am
15977David Hughes68M1:12:21.916:49.7Sat Apr 26th, 2014 7:11:56 am
160105Craig Meseko29M1:39:35.123:09.6Sat Apr 26th, 2014 7:39:09 am

Event Information
Name of Event:50 Mile Trail
Distance:50.00
Measurement:Miles
Date:Saturday April 26th, 2014
button: Assign Numbers 
2004-2019 : All rights reserved
Terms and Conditions